QZS-1 (MICHIBIKI)

Last updated on Dec. 18, 2018, 12:08 a.m. UTC

1 37158U 10045A   18351.77907994 -.00000060  00000-0  00000+0 0  9990
2 37158  41.1964 151.4039 0751178 270.4413  80.9265  1.00275521 30257
UTC
Height (km)
Latitude
Longitude
Inclination
Orbital Period
UTC large
Height (km)
Speed (km/s)
/
Latitude / Longitude
Inclination (degrees)
Orbital Period (minutes)
Azimuth
Elevation
Range (km)
Doppler Factor
iOS Compass Heading
iOS Angle

Next 30 passes for location: Hong Kong

Rise time Rise Azimuth (degrees) Set time Set Azimuth (degrees) Duration Max altitude (degrees)

No matching passes for this satellites